Showing default

DASH 1, 589

Orbit data source: Space-Track

DASH 1, 589 is a payload satellite owned by USAF SSD (US) in LEO that was launched on Thu, 09 May 1963 UTC via an ATLAS AGENA B launch vehicle from the Air Force Western Test Range (AFWTR). Payload-class satellites include a variety of spacecraft equipped with specific instruments for various scientific and technological missions. These include communications satellites like Starlink; space stations such as the ISS; scientific satellites like the Hubble; Earth observation satellites from companies like Planet Labs, Umbra, and HawkEye 360; GPS; miniature CubeSats for education and research; and military/defense satellites.

Loading next visibility...
Identifier
589, 1963-014D
Orbit
LEO
Country
Flag of USUS
Related business
Manufacturer
MITLL?
Mission
Spacecraft
Bus & Motor
DASH, Unknown motor
Mass
1 kg wet, 1 kg dry
Launch date (UTC)
1963-05-09 (62 years ago)
Launch vehicle
ATLAS AGENA B
Launch site
Air Force Western Test Range (AFWTR)
Object type
Payload
Rocket body
Debris
Shape & HBR
Unknown
Radar Cross Section
Large (>1 m²)

Expand to show TLE details & history
Last TLE update: 2 days ago

TLE from 2 days ago
0 DASH 1
1 00589U 63014D   25285.24689179 -.00000019  00000-0 -10299-1 0  9998
2 00589  87.3439 214.0053 0077128 228.1086 131.3171  8.65625863972368
Epoch: 2025-10-12T05:55Z
TLE epoch observation values (Epoch: 2025-10-12T05:55:31.450Z)
Latitude
0.00002°
Longitude
104.05749°
Altitude
3,694.964 km
Speed
6.275 km/s
True Right ascension
14h 16m 01s
True Declination
0° 00' 00"
Sunlit
Object was in daylight at epoch
Visualization orbit readout
Latitude
Unknown
Longitude
Unknown
Altitude
Unknown
Speed
Unknown
Apparent Right ascension
Unknown
Apparent Declination
Unknown
Sunlit
N/A
Visualization observer readout
Local Sidereal Time
19:17:28
Azimuth
Unknown
Elevation
Unknown
Doppler factor
Unknown
Orbital elements
Apogee altitude
3,716.501 km
Perigee altitude
3,561.977 km
Semi-major axis
10,017.376 km
Eccentricity
0.00771
Inclination
87.3439°
RAAN
214.0053°
Arg. of periapsis
228.1086°
True anomaly
131.9767°
Mean anomaly
131.3171°
Eccentric anomaly
131.64732°
Mean motion
2.16477 °/min
Orbital period
166.3 mins
BSTAR
-0.010299

Documentation

Showing up to 5 results
|